Regional Weather Roundup
Issued by NWS

Home | Current Version | Previous Version | Graphics & Text | Print | Product List | Glossary On
Versions: 1 2 3 4 5 6 7 8 9 10 11 12 13 14 15 16 17 18 19 20 21 22 23 24 25 26 27 28 29 30 31 32 33 34 35 36 37 38 39 40 41 42 43 44 45 46 47 48 49 50
000
ASUS43 KDTX 051610
RWRMI
MICHIGAN HOURLY REGIONAL WEATHER ROUNDUP
NATIONAL WEATHER SERVICE DETROIT/PONTIAC MI
1200 PM EDT THU MAY 05 2016

NOTE: "FAIR" INDICATES FEW OR NO CLOUDS BELOW 12,000 FEET WITH NO
SIGNIFICANT WEATHER AND/OR OBSTRUCTION TO VISIBILITY.

MIZ047>049-052>055-059>063-066>070-074>076-081>083-051700-
SOUTHEAST LOWER MICHIGAN

CITY           SKY/WX    TMP DP  RH WIND       PRES   REMARKS
ADRIAN         SUNNY     61  46  57 NE14G22   29.87S
ALMA           MOSUNNY   56  48  73 NW12      29.94S
ANN ARBOR      SUNNY     62  45  53 N12G20    29.87R
BAD AXE        SUNNY     54  46  75 N12       29.92S
CARO           MOSUNNY   55  47  76 N10       29.92R
DETROIT CITY   SUNNY     62  44  51 N14G23    29.86S
DETROIT        MOSUNNY   62  42  47 N13G23    29.86S
FLINT          MOSUNNY   59  46  62 N12       29.91S
GROSSE ILE     SUNNY     63  45  51 NE17      29.84S
HILLSDALE      SUNNY     58  41  54 N9        29.88R
HOWELL         MOSUNNY   55  47  74 N8G16     29.90S

CITY           SKY/WX    TMP DP  RH WIND       PRES   REMARKS
JACKSON        SUNNY     58  46  64 N12       29.89S
LAMBERTVILLE   MOSUNNY   61  45  54 N10G17    29.86R
LANSING        PTSUNNY   57  47  69 NE10      29.93R
LAPEER         FAIR      57  46  66 N8G16     29.90R
MASON          MOSUNNY   56  48  74 N7        29.91S
MONROE         SUNNY     62  46  53 NE14G21   29.85R
MT. CLEMENS    MOSUNNY   61  47  59 N17       29.85S
PONTIAC        MOSUNNY   59  45  59 N13       29.87S
PORT HOPE        N/A     47  43  86 N9        29.93R
PORT HURON     SUNNY     59  45  58 N9G17     29.87S
TRI CITIES     SUNNY     58  48  69 NE10      29.95R
MIDLAND        FAIR      59  47  63 NW6       29.94R
TROY           MOSUNNY   62  44  51 NE13G23   29.88R
SAGINAW HB     CLOUDY    54  46  76 N14       29.94R
$$
MIZ043>046-050>051-056>058-064>065-071>073-077>080-051700-
SOUTHWEST LOWER MICHIGAN

CITY           SKY/WX    TMP DP  RH WIND       PRES   REMARKS
BATTLE CREEK   SUNNY     58  47  66 N10       29.92S
BENTON HARBOR  PTSUNNY   47  41  80 NW8       29.98R
BIG RAPIDS     SUNNY     55  44  65 N6        29.96S
COLDWATER      SUNNY     58  48  69 N8        29.90S
FREMONT        FAIR      56  46  69 N6        29.97S
HOLLAND        SUNNY    N/A N/A N/A N7        29.97S
GRAND RAPIDS   SUNNY     60  47  61 N10       29.95R
IONIA          FAIR      59  46  61 N12       29.92S
KALAMAZOO      SUNNY     58  46  64 N13       29.94R
LUDINGTON      SUNNY     54  43  68 NW6       29.99S
MARSHALL       SUNNY     57  46  65 N5        29.91R
MOUNT PLEASANT   N/A     58  47  67 N7        29.94S
MUSKEGON       SUNNY     59  43  55 NW7       29.97S
SOUTH HAVEN    SUNNY     50  43  77 NW10      29.97R
$$
MIZ016>042-051700-
NORTHERN LOWER MICHIGAN

CITY           SKY/WX    TMP DP  RH WIND       PRES   REMARKS
ALPENA         SUNNY     57  44  62 N7        29.97S
BEAVER ISLAND  SUNNY     49  38  65 W6        30.01R
BELLAIRE       SUNNY     55  43  64 SW5       29.99S
CADILLAC       MOSUNNY   51  45  77 NE7       29.97S
CHARLEVOIX     SUNNY     45  40  84 NW7       30.03S
FRANKFORT      SUNNY     51  42  71 N8        30.00F
GAYLORD        SUNNY     54  44  69 VRB6      29.97S
GRAYLING       SUNNY     56  46  69 CALM      29.97F
HARBOR SPRINGS SUNNY     46  41  81 SW8       29.99S
HOUGHTON LAKE  MOSUNNY   53  44  71 NW8       29.97S
MANISTEE       SUNNY     48  39  71 NW9       30.01R
OSCODA         SUNNY     58  42  57 NE13      29.94R
PELLSTON       SUNNY     56  44  64 VRB6      29.98F
ROGERS CITY    SUNNY     48  42  79 N9        29.99S
TRAVERSE CITY  SUNNY     51  41  68 N5        30.00S
$$
MIZ007>008-015-051700-
EASTERN UPPER MICHIGAN

CITY           SKY/WX    TMP DP  RH WIND       PRES   REMARKS
KINROSS          N/A     54  43  66 NW9       29.98R
MACKINAC ISLAN SUNNY     46  40  82 W3        29.98S
NEWBERRY       SUNNY     52  37  58 NW8       30.00R
S. S. MARIE    SUNNY     54  41  61 W10       29.97S
MUNISING         N/A     44  37  76 NE7       30.03S
$$
MIZ004>006-011>014-085-051700-
CENTRAL UPPER MICHIGAN

CITY           SKY/WX    TMP DP  RH WIND       PRES   REMARKS
MANISTIQUE     SUNNY     53  37  54 N8        30.01R
ESCANABA       SUNNY     52  37  58 SE9       30.01F
MENOMINEE      SUNNY     52  36  54 E8        30.05S
SAWYER-GWINN   SUNNY     50  36  57 NE3       30.03F
$$
MIZ001>003-009>011-084-051700-
WESTERN UPPER MICHIGAN

CITY           SKY/WX    TMP DP  RH WIND       PRES   REMARKS
IRON MOUNTAIN  SUNNY     55  34  45 VRB5      30.01S
HOUGHTON       SUNNY     55  30  38 W8        29.98F
COPPER HARBOR    N/A     45  35  68 E3        29.99F
IRONWOOD       SUNNY     57  30  35 SW9       29.97F
$$

ABBREVIATIONS USED IN REMARKS
   TC - TEMPERATURE IN CELSIUS
  WCI - WIND CHILL INDEX
   HX - HEAT INDEX
  VSB - VISIBILITY





USA.gov is the U.S. government's official web portal to all federal, state and local government web resources and services.